World > North America > United States > Mississippi > Wheeler  

Wheeler, MS Hourly Weather Updates

Feedback E-mail the Weather

Quick Clicks

Wheeler, MS Weather Maps

°F °C°F °C
Wheeler Weather Map
UTC Time: 7/17/2024, 20:08
Your Time:

Wheeler, MS Regional Weather

Expires:202407172000;;204907
ASUS44 KJAN 171910
RWRMS 

MISSISSIPPI HOURLY WEATHER ROUNDUP
NATIONAL WEATHER SERVICE JACKSON MS
200 PM CDT WED JUL 17 2024

NOTE: "FAIR: INDICATES FEW OR NO CLOUDS BELOW 12,000 FEET WITH NO
SIGNIFICANT WEATHER AND/OR OBSTRUCTIONS TO VISIBILITY.


MSZ003>006-009-014>017-022>024-029>033-037>039-172000-
NORTHEAST MISSISSIPPI
  
CITY           SKY/WX    TMP DP  RH WIND       PRES   REMARKS
ABERDEEN       PTSUNNY   95  73  49 NW8G18    29.98F HX 105           
COLUMBUS AFB   MOSUNNY   97  69  39 W8G17     29.93F HX 102           
CORINTH        PTSUNNY   82  73  74 NW9       30.00F                  
GOLDN TRIANGLE MOSUNNY   82  73  74 S3        29.99F                  
IUKA           LGT RAIN  76  76 100 CALM      30.02F                  
LOUISVILLE     PTSUNNY   90  77  66 VRB3      30.03F HX 102           
STARKVILLE     PTSUNNY   82  73  74 SW6       29.97F                  
TUPELO         PTSUNNY   89  72  56 NW21G30   30.00R HX  96           
$$


SKY/WX - Weather  TMP - Temperature  DP - Dew Point  RH - Humidity
WIND - Wind Direction/Speed PRES - Barometric Pressure VSB - Visibility
WCI - Wind Chill Index E13G22 Wind - East Wind 13 mph/Gusts of 22 mph

Trending Headlines

Trending Entertainment Headlines

Wheeler Radar Loop

Use the map search tool if you want to place a location marker on the radar map...

Wheeler Quick Facts

National Two Day Weather Forecast


E-mail the Wheeler Weather Forecast

Voice your opinion or tell us about page issues...